Temperature
16 16 17 17 14 12 14 15 17 19 20 22 22 22 20 20 21 20 19 20 20 20 19 19 19 18 17 17 17 17 17 16 16 16 16 16 15 15 15 15 15 15 15 15 15 15 15 14 14
15 16 16 16 13 13 14 15 17 19 21 22 22 22 21 20 20 20 19 19 20 20 19 19 18 18 17 17 17 17 17 16 16 16 16 16 15 15 15 15 15 15 15 15 15 15 15 14 14
15 15 16 12 12 13 15 17 17 19 21 22 22 22 21 20 20 20 20 20 19 20 19 18 18 18 17 17 17 17 17 17 16 16 16 16 16 16 15 15 15 15 15 15 15 15 15 14 14
14 15 15 12 13 14 15 17 18 19 21 22 22 20 20 20 21 21 20 20 19 19 19 18 18 17 17 17 17 17 17 17 17 17 17 16 16 16 16 15 15 15 15 15 15 15 15 14 14
14 14 12 11 12 14 15 17 18 18 19 22 22 19 19 20 20 21 20 19 19 19 18 17 17 17 17 17 17 17 17 17 17 17 17 17 16 16 16 15 15 15 15 15 15 15 15 14 14
13 12 11 11 12 14 16 18 18 18 19 21 21 19 18 19 19 19 19 19 19 19 18 17 17 17 17 17 17 17 17 17 17 17 17 17 17 16 16 16 15 15 15 15 15 15 15 15 14
12 10 11 12 13 14 16 18 18 18 18 20 21 18 18 18 18 18 18 18 18 18 17 16 16 16 16 16 16 17 17 17 17 17 17 17 17 17 16 16 16 16 16 16 16 15 15 15 15
12 10 11 11 13 14 17 18 19 19 19 21 21 18 18 18 18 18 17 17 17 17 17 16 16 16 16 16 16 17 17 17 17 17 17 17 17 17 16 16 16 16 16 16 16 15 15 15 15
12 10 11 12 13 15 17 17 19 19 20 20 20 20 20 18 18 17 17 17 17 17 16 16 16 16 16 16 16 17 17 17 17 17 18 17 17 17 17 16 16 16 16 16 16 15 15 15 15
11 10 11 13 14 15 17 17 18 19 19 19 19 19 19 18 18 18 17 17 17 16 16 16 16 16 16 16 16 17 17 17 17 18 18 18 17 17 17 16 16 16 16 16 16 15 15 15 15
10 10 12 14 15 16 16 17 18 18 17 18 19 19 18 18 18 18 18 18 17 17 16 16 16 16 16 16 16 16 17 17 17 17 17 17 17 17 17 17 16 16 16 16 16 15 15 15 15
10 11 13 14 15 16 16 16 17 17 18 19 20 19 19 18 18 18 18 18 17 17 16 16 16 16 16 16 16 16 17 17 17 18 18 18 18 17 17 17 17 16 16 16 16 15 15 15 15
10 11 13 14 14 15 16 16 16 17 18 19 19 19 19 19 18 18 18 17 17 16 16 16 16 16 16 16 16 16 16 17 17 17 17 17 17 17 17 17 16 16 16 16 16 15 15 15 15
10 11 12 13 14 15 15 15 15 16 17 18 18 18 18 18 18 18 17 17 17 17 16 16 16 15 15 15 15 16 16 16 16 16 17 17 17 17 17 17 16 16 16 16 15 15 15 15 14
11 11 11 12 13 14 14 14 14 16 17 17 17 18 18 18 18 18 18 18 17 17 16 16 16 15 15 15 15 15 15 16 16 16 16 16 17 17 16 16 16 16 16 16 15 15 15 14 14
10 10 10 11 12 13 13 12 14 16 16 16 17 17 18 18 18 18 18 18 17 17 16 16 16 15 15 15 15 15 15 15 15 15 16 16 16 16 16 16 16 16 15 15 15 15 14 14 14
9 8 9 11 12 12 12 12 13 15 16 16 16 17 17 18 18 17 17 17 17 17 17 16 16 16 15 15 15 15 15 15 15 15 15 15 15 15 15 15 15 15 15 15 14 14 14 14 13
8 8 9 9 11 11 11 11 12 14 15 15 16 16 17 17 18 18 17 17 17 17 16 16 16 16 15 15 15 15 15 15 14 14 15 15 15 15 15 15 15 14 14 14 14 14 13 13 13
9 9 9 10 11 11 10 11 11 13 14 14 15 16 16 17 17 17 17 17 17 17 16 16 16 16 15 15 15 15 15 15 14 14 14 14 14 14 14 14 14 14 14 14 14 13 13 13 12
9 8 9 10 11 11 10 10 11 12 13 14 14 15 16 16 17 17 17 17 17 17 16 16 16 16 15 15 15 15 15 15 15 14 14 14 14 14 14 14 14 14 13 13 13 13 12 12 12
8 8 8 9 10 10 10 10 10 11 12 14 15 15 16 16 16 16 16 16 16 16 16 16 16 15 15 15 15 14 14 14 14 14 14 14 14 14 14 14 14 13 13 13 13 12 12 12 12
8 9 9 9 9 9 9 8 9 10 11 11 13 14 15 15 16 16 16 16 16 16 16 15 15 15 15 15 15 14 14 14 14 15 14 14 14 14 14 13 13 13 13 13 12 12 12 12 11
8 9 9 9 8 8 8 8 8 9 10 11 12 13 14 15 15 15 15 15 15 15 15 15 15 15 15 15 14 14 14 14 14 14 14 14 14 14 13 13 13 13 13 12 12 12 12 11 11
9 9 8 8 7 8 8 8 8 8 10 11 11 13 13 14 14 14 14 14 14 14 14 14 14 14 14 14 14 14 14 14 14 14 14 14 14 13 13 13 13 12 12 12 12 12 11 11 11
8 7 7 7 7 7 8 8 8 9 10 10 10 11 13 13 13 13 13 13 13 13 13 13 13 13 13 13 13 13 13 13 13 13 13 13 13 13 13 12 12 12 12 12 11 11 11 11 11
7 7 7 7 7 7 8 7 8 9 9 11 11 12 12 12 12 12 12 12 12 12 12 12 12 12 13 12 12 12 12 12 12 12 12 12 12 12 12 12 11 11 11 11 11 11 10 10 10
7 7 7 6 6 6 7 8 9 9 8 8 9 10 10 11 11 11 11 11 11 11 11 11 11 11 12 12 12 12 12 12 12 12 11 11 11 11 11 11 11 11 10 10 10 10 10 10 10
7 7 6 6 6 7 8 8 8 9 8 8 8 9 10 10 10 11 10 10 10 10 10 10 10 11 11 11 11 11 11 11 11 11 11 10 10 10 10 10 10 10 10 9 9 9 9 9 9
7 7 6 6 6 6 7 8 9 8 8 7 8 9 10 10 10 10 10 10 9 9 9 9 10 10 10 10 10 10 10 10 10 10 10 10 10 9 9 9 9 9 9 9 8 8 8 8 8
7 7 6 6 6 5 6 7 9 8 8 8 8 9 10 10 10 10 9 9 9 9 9 9 9 9 9 9 9 9 9 9 9 9 9 9 9 8 8 8 8 8 8 8 8 7 7 7 7
Wind_Speed
4 3 3 4 5 3 5 7 5 4 3 3 2 7 9 5 3 4 3 12 16 15 19 22 22 22 21 20 20 19 18 17 16 15 15 14 13 13 13 13 14 14 15 15 15 15 15 15 15
1 1 4 5 5 3 6 7 6 7 6 4 2 5 7 4 3 7 6 12 18 18 18 20 22 22 21 21 20 19 18 17 16 15 14 14 13 13 13 13 14 14 15 15 15 15 14 14 14
0 1 4 5 6 8 7 6 6 6 6 3 1 5 7 6 5 6 9 16 16 15 17 20 23 22 22 21 20 19 18 17 16 15 14 13 13 13 13 14 15 15 15 15 14 14 13 12 12
2 3 4 4 8 8 8 5 1 5 6 3 3 5 4 1 5 9 16 17 16 11 16 20 22 22 22 21 20 19 18 17 16 15 14 13 13 14 15 16 15 15 15 14 14 13 12 11 11
3 4 4 5 8 7 8 7 3 4 4 4 3 5 3 6 7 17 17 17 16 12 16 20 22 22 22 21 19 18 18 17 16 15 14 14 14 15 16 16 15 15 14 14 13 11 10 10 10
3 4 6 9 9 7 8 6 3 5 5 4 2 5 1 3 9 14 15 15 15 14 15 19 22 22 21 20 19 18 17 17 16 14 14 14 15 16 16 16 15 15 14 13 12 11 10 9 8
5 6 7 9 8 9 11 5 5 5 5 5 3 6 3 2 6 11 14 14 14 14 13 15 19 20 21 20 19 19 18 17 15 14 14 15 15 16 16 15 15 14 13 12 11 10 9 8 7
4 5 7 8 10 11 8 4 5 5 6 3 4 9 7 6 8 12 13 13 13 12 11 12 15 17 18 19 20 20 19 17 16 15 15 16 16 16 15 15 14 14 13 12 11 10 9 7 6
4 4 8 10 11 9 5 4 5 4 4 1 1 5 7 11 14 15 13 11 11 12 11 11 11 14 15 16 18 19 18 17 17 16 16 15 14 14 13 14 15 13 12 11 10 9 8 7 5
5 7 10 6 6 5 4 5 5 2 3 0 3 4 7 10 14 15 15 14 13 13 12 10 10 12 14 14 15 15 15 15 15 15 15 14 13 13 12 14 14 13 12 11 10 9 8 6 5
7 8 5 3 2 3 3 3 3 5 5 5 7 9 9 10 12 13 13 13 13 13 12 11 10 12 12 10 12 11 12 13 14 16 16 14 13 11 11 11 12 12 11 9 9 8 7 7 6
5 5 4 3 1 2 3 2 2 5 6 6 9 12 10 11 12 13 13 12 12 12 12 11 11 10 11 12 11 11 10 10 11 14 16 13 9 9 10 10 11 11 10 9 8 8 8 8 8
6 3 5 4 3 3 2 1 1 3 4 4 7 8 11 11 9 9 10 11 11 11 12 12 11 11 10 10 9 10 10 11 13 14 15 15 10 7 9 9 11 12 12 10 9 8 8 7 8
6 4 4 5 5 4 4 2 2 4 2 4 7 7 8 9 9 8 8 9 10 11 11 11 11 12 11 9 7 9 11 13 13 14 16 17 14 11 10 8 10 11 13 12 11 10 8 7 7
4 4 3 5 6 5 4 5 7 5 0 2 4 5 6 7 8 10 11 10 10 10 10 10 11 11 12 11 9 10 12 13 12 13 17 18 17 15 12 8 8 11 14 13 11 9 7 5 5
5 5 5 5 7 6 8 11 9 5 2 3 4 3 4 5 8 9 10 9 9 9 9 9 9 10 11 9 8 8 11 12 11 14 15 17 18 17 14 8 8 13 14 11 6 4 5 5 5
6 8 9 5 6 6 7 8 7 5 5 6 6 6 5 4 5 6 8 9 9 9 9 9 8 9 9 8 7 7 9 9 11 13 13 15 17 18 15 10 10 14 10 8 6 6 5 5 5
10 8 8 8 6 7 8 7 6 4 5 8 8 7 7 7 7 6 7 8 8 8 9 9 8 8 7 6 5 4 5 5 8 10 12 15 15 16 15 10 10 12 6 7 6 6 5 5 5
6 6 6 6 4 7 9 10 9 8 6 8 9 8 8 8 6 4 5 6 6 6 7 8 7 7 6 4 5 5 5 4 4 5 10 12 13 14 12 7 8 8 8 9 8 6 6 5 3
6 6 5 3 4 7 7 11 10 10 10 10 10 10 10 8 5 4 3 4 5 6 6 7 7 7 6 5 5 3 3 3 4 4 7 10 11 12 11 8 8 8 8 8 9 7 5 5 5
6 8 7 5 3 3 3 7 11 10 9 9 9 10 9 10 9 7 5 5 5 5 5 6 6 6 5 5 3 2 2 1 2 4 4 6 9 10 10 10 8 8 9 9 10 9 9 7 6
6 7 7 6 6 5 6 5 9 10 11 13 13 11 10 9 8 6 5 5 4 4 3 4 4 4 4 4 5 6 6 6 5 4 4 4 6 7 9 9 9 8 8 9 10 10 9 8 7
5 4 5 4 5 2 4 4 8 6 12 16 15 13 10 8 8 7 6 5 4 3 3 3 4 3 2 3 5 6 5 5 3 2 3 4 3 4 6 7 6 7 8 9 9 9 10 9 9
4 5 5 3 2 4 7 6 7 6 11 10 12 12 10 8 7 6 5 5 4 4 3 3 4 3 2 3 3 4 5 4 2 2 3 3 3 3 4 5 4 5 6 7 8 9 9 9 9
5 6 3 3 4 6 6 6 9 9 9 11 11 10 9 9 9 7 6 5 4 4 3 3 4 3 2 3 2 2 3 3 4 3 3 3 2 3 4 4 4 5 5 5 5 6 7 8 8
7 6 6 6 6 3 5 8 8 7 5 4 7 9 10 9 8 8 7 6 5 4 4 4 4 3 3 3 2 2 1 1 2 2 2 2 2 3 3 3 4 3 3 3 3 4 4 4 5
7 5 3 3 2 2 5 6 6 2 3 5 8 10 9 9 8 7 6 6 5 5 4 4 4 3 3 3 3 3 2 1 1 0 0 0 1 1 1 1 2 2 2 2 2 2 2 2 2
4 6 4 4 5 4 4 5 5 5 5 6 8 9 8 8 7 7 6 5 4 4 4 4 4 4 4 4 3 3 3 3 3 3 3 2 2 2 1 1 1 1 1 1 1 1 1 2 1
5 4 4 4 3 4 3 6 5 9 9 9 8 8 9 8 8 6 5 5 5 5 5 4 4 4 4 4 4 5 5 5 5 5 4 4 4 4 4 3 3 4 3 3 3 3 3 3 3
4 6 6 5 4 4 3 6 5 6 8 8 8 7 7 8 7 6 6 6 5 5 4 4 4 4 3 4 5 5 5 6 6 6 5 5 5 5 5 5 5 6 5 5 5 5 5 5 5
Wind_Direction
295 352 72 62 65 72 228 239 231 271 271 246 189 126 115 107 144 165 114 139 137 145 154 153 150 147 146 144 141 139 137 134 132 129 127 126 125 123 120 119 116 111 107 104 101 98 97 97 96
339 47 68 72 119 181 245 239 238 243 235 240 177 118 97 89 113 113 120 144 142 146 151 153 149 147 145 143 142 140 138 136 134 131 130 129 128 127 125 124 119 114 111 108 106 103 101 100 97
62 71 106 110 158 192 225 231 231 271 272 235 142 90 109 137 145 135 147 142 138 142 148 153 149 146 145 143 142 140 139 136 134 133 133 132 132 131 129 127 123 119 116 113 111 109 106 103 97
99 79 81 140 203 212 218 235 289 308 316 291 114 75 64 13 165 137 139 139 137 135 144 152 149 147 145 144 143 142 140 138 136 134 135 135 135 134 131 129 126 124 122 120 117 114 111 105 96
81 117 144 204 219 233 240 254 280 284 281 288 102 101 45 349 108 130 139 141 140 137 145 153 149 148 147 146 145 144 142 141 139 138 138 139 139 137 134 133 133 131 129 127 125 122 118 111 99
124 123 166 207 218 237 250 245 262 270 270 288 121 111 97 49 114 136 140 141 142 142 147 154 151 149 149 149 148 147 145 143 142 142 142 142 142 141 140 139 139 137 136 136 135 133 128 120 109
160 157 191 196 208 232 239 227 219 245 265 253 157 118 129 127 131 136 137 137 139 143 145 150 152 152 152 152 151 149 147 146 145 145 145 144 144 145 145 145 145 144 143 142 143 143 140 134 123
167 153 182 191 198 225 234 233 230 220 248 255 132 142 167 181 134 125 130 135 139 144 147 149 152 154 154 154 153 152 150 149 147 145 144 146 146 149 150 151 151 150 150 150 151 153 154 151 141
141 156 198 196 196 217 217 223 257 235 228 319 75 168 169 143 124 124 131 136 145 151 153 153 153 155 154 155 157 154 153 153 149 148 148 147 149 152 155 157 157 156 157 159 161 165 168 169 165
165 198 212 199 187 194 196 209 242 240 244 305 50 72 112 125 131 139 149 154 157 160 163 161 159 158 156 157 155 155 155 156 155 156 155 155 157 159 162 163 163 163 165 167 171 175 179 185 193
181 205 208 237 211 194 188 221 237 201 226 207 168 156 146 139 141 148 157 162 165 165 166 168 166 163 161 154 157 160 160 162 165 167 167 165 165 167 167 167 170 171 171 173 179 181 191 203 216
190 216 188 233 263 210 191 203 239 206 211 203 175 164 156 158 161 162 163 165 166 167 171 172 170 167 166 161 166 167 166 170 174 181 179 172 170 172 174 176 178 178 180 183 188 193 207 221 234
220 202 193 230 269 240 202 182 209 234 218 163 142 154 165 173 177 175 165 164 163 170 173 173 172 170 170 168 173 176 179 182 185 189 191 184 178 179 182 185 186 189 191 194 199 206 215 228 239
200 211 219 228 231 231 200 230 155 231 211 126 137 153 171 178 180 178 174 172 175 175 173 172 172 171 172 174 176 181 187 188 189 193 196 194 189 186 187 189 193 198 201 204 206 211 214 222 226
158 182 252 227 200 199 162 233 217 222 255 147 159 170 177 188 184 184 187 184 183 179 175 175 175 171 173 178 182 185 189 190 192 198 201 198 195 193 191 192 198 204 207 208 211 217 218 221 221
152 167 205 228 184 181 165 223 232 229 208 234 220 205 198 200 194 194 188 185 183 176 175 178 179 175 177 180 183 185 190 190 193 198 201 202 199 197 194 196 202 204 205 204 202 203 210 222 220
166 187 196 216 194 166 174 223 246 231 212 235 239 235 229 227 216 205 191 184 181 177 175 178 178 179 182 181 182 184 188 192 196 198 199 203 202 200 198 201 203 200 200 202 206 205 200 213 221
179 176 180 195 200 168 191 226 255 246 221 238 241 236 234 229 225 206 189 183 180 178 176 179 181 183 182 178 176 179 190 195 197 200 203 203 204 202 200 203 203 197 198 204 203 203 205 206 205
154 153 175 202 200 176 209 232 245 250 242 244 245 238 232 232 228 206 188 176 168 170 173 180 182 185 176 175 181 187 199 200 201 204 207 208 209 206 203 205 201 199 206 209 204 199 206 212 175
162 167 183 215 211 188 216 240 246 243 239 232 232 232 226 224 218 210 195 173 172 177 176 175 183 184 185 188 186 185 184 199 204 204 210 212 213 213 212 209 210 207 210 212 208 201 201 205 180
186 186 190 189 187 183 176 260 249 248 240 242 234 224 218 210 205 202 192 178 163 170 178 177 178 180 185 184 169 149 146 171 201 215 219 220 219 218 218 218 214 213 212 218 216 208 205 213 207
199 193 192 183 155 205 183 237 257 234 240 237 234 225 215 205 192 184 174 164 156 165 160 159 161 164 176 173 172 178 192 208 217 220 226 236 231 231 229 225 219 218 219 222 220 214 212 207 213
191 162 160 170 160 170 180 207 273 235 231 235 229 221 213 197 178 167 158 148 135 128 122 121 122 129 148 158 174 184 201 216 223 222 229 237 243 241 240 235 228 226 223 225 223 217 214 214 216
158 96 79 72 110 220 204 191 266 230 223 230 222 211 198 174 155 144 135 125 112 101 98 100 107 102 108 135 150 172 191 200 202 221 232 243 246 247 252 249 240 235 231 228 227 224 219 221 220
149 129 134 166 201 233 192 199 247 245 237 221 207 190 170 156 147 144 139 130 121 111 105 101 106 97 87 107 122 154 181 190 204 220 229 240 245 248 257 248 247 245 241 237 232 226 227 224 222
168 153 165 179 192 232 194 222 251 273 271 208 172 157 148 146 145 146 147 143 134 121 108 104 104 94 78 88 90 88 130 175 210 224 227 232 239 245 253 248 248 252 249 240 229 225 227 224 224
149 174 167 132 141 176 234 260 299 359 64 114 129 135 144 147 144 141 139 134 130 124 113 110 106 92 74 79 83 66 57 70 78 54 153 244 274 260 260 249 254 262 256 240 213 209 215 195 203
145 146 131 152 166 209 250 245 233 216 189 158 149 148 148 142 138 136 135 132 122 114 101 92 93 90 76 71 74 76 55 52 59 66 57 45 24 14 25 22 13 356 5 12 106 114 111 115 107
154 158 163 167 185 172 222 260 226 208 197 178 171 162 156 153 151 146 139 127 116 103 95 92 87 83 76 75 73 69 59 58 61 60 50 44 39 39 48 51 57 57 52 52 73 77 81 93 85
178 180 165 171 206 186 188 264 292 217 186 169 167 167 162 157 153 148 140 126 116 109 103 98 93 90 86 87 83 76 68 66 64 57 48 50 50 47 51 57 62 60 56 58 70 76 77 82 82
Height
1524 1526 1528 1530 1533 1542 1542 1532 1523 1519 1517 1514 1513 1512 1513 1517 1520 1525 1521 1521 1525 1527 1530 1533 1537 1540 1543 1545 1547 1549 1551 1552 1553 1554 1555 1555 1556 1556 1557 1557 1558 1558 1559 1558 1558 1558 1559 1559 1559
1522 1524 1527 1528 1537 1546 1540 1526 1520 1516 1514 1513 1513 1512 1512 1516 1516 1518 1519 1523 1526 1528 1531 1534 1537 1540 1543 1546 1548 1550 1551 1553 1554 1555 1555 1556 1556 1557 1557 1558 1559 1560 1560 1560 1560 1560 1561 1561 1561
1520 1522 1525 1528 1536 1538 1531 1519 1516 1513 1512 1512 1511 1511 1513 1515 1517 1518 1520 1523 1526 1529 1531 1534 1538 1541 1543 1546 1548 1550 1551 1553 1554 1555 1555 1556 1557 1557 1558 1559 1560 1561 1561 1562 1562 1562 1563 1563 1563
1518 1522 1524 1529 1530 1525 1519 1514 1514 1513 1511 1510 1510 1512 1514 1516 1517 1518 1520 1523 1526 1529 1532 1535 1538 1541 1544 1546 1548 1550 1551 1553 1554 1555 1556 1556 1557 1558 1559 1560 1561 1562 1563 1563 1564 1564 1565 1565 1565
1516 1518 1524 1528 1525 1518 1513 1512 1514 1514 1512 1510 1510 1512 1514 1516 1517 1518 1520 1523 1526 1528 1532 1535 1539 1541 1544 1546 1548 1550 1551 1553 1554 1555 1556 1557 1557 1558 1560 1561 1562 1563 1564 1565 1565 1566 1566 1567 1567
1513 1515 1524 1525 1521 1514 1510 1510 1513 1513 1512 1511 1510 1512 1515 1517 1517 1518 1521 1523 1526 1529 1532 1536 1539 1542 1544 1546 1548 1550 1551 1553 1554 1555 1556 1557 1558 1559 1560 1562 1563 1564 1565 1566 1567 1567 1568 1568 1569
1510 1513 1517 1517 1517 1513 1508 1509 1511 1511 1511 1511 1510 1512 1515 1517 1518 1519 1522 1524 1527 1529 1532 1536 1539 1542 1544 1546 1548 1550 1551 1552 1554 1555 1556 1557 1559 1560 1561 1562 1563 1565 1566 1567 1568 1568 1569 1570 1570
1506 1510 1513 1514 1513 1509 1504 1507 1508 1509 1509 1509 1510 1510 1513 1516 1518 1520 1523 1525 1528 1530 1533 1536 1538 1541 1543 1546 1548 1549 1551 1552 1554 1555 1556 1558 1559 1560 1562 1563 1564 1565 1566 1567 1568 1569 1570 1570 1571
1504 1510 1510 1508 1506 1504 1502 1506 1506 1507 1507 1508 1508 1508 1510 1514 1517 1520 1523 1526 1528 1530 1533 1535 1538 1540 1543 1545 1547 1549 1550 1552 1553 1555 1556 1558 1559 1560 1562 1563 1564 1565 1566 1567 1568 1569 1570 1571 1571
1501 1505 1502 1499 1499 1500 1502 1504 1505 1506 1506 1507 1507 1508 1511 1513 1516 1519 1521 1524 1527 1529 1532 1535 1537 1540 1542 1544 1546 1548 1550 1551 1553 1554 1556 1557 1559 1560 1561 1563 1564 1565 1566 1567 1568 1569 1570 1571 1571
1497 1498 1497 1497 1497 1499 1500 1502 1504 1505 1506 1506 1506 1507 1510 1514 1516 1519 1521 1524 1526 1529 1531 1534 1536 1539 1541 1543 1545 1547 1549 1550 1552 1553 1555 1556 1558 1559 1561 1562 1563 1564 1566 1567 1568 1568 1569 1570 1571
1495 1495 1495 1496 1497 1498 1499 1500 1502 1502 1503 1504 1505 1506 1509 1512 1515 1517 1520 1523 1525 1528 1530 1533 1535 1537 1540 1542 1544 1546 1548 1549 1551 1552 1554 1555 1557 1558 1560 1561 1562 1564 1565 1566 1567 1568 1568 1569 1570
1493 1493 1495 1496 1498 1498 1498 1499 1500 1501 1502 1503 1504 1506 1508 1511 1514 1517 1519 1522 1524 1526 1529 1531 1534 1536 1538 1541 1543 1544 1546 1548 1549 1551 1552 1554 1555 1557 1558 1560 1561 1562 1563 1564 1565 1566 1567 1568 1568
1491 1493 1494 1496 1497 1498 1498 1498 1499 1500 1500 1501 1503 1505 1507 1510 1513 1516 1518 1520 1522 1525 1527 1530 1532 1534 1537 1539 1541 1543 1545 1546 1548 1549 1550 1552 1553 1555 1556 1558 1559 1560 1561 1563 1564 1564 1565 1566 1566
1490 1493 1494 1494 1494 1496 1498 1500 1498 1498 1499 1500 1502 1504 1506 1509 1511 1513 1516 1518 1520 1523 1525 1528 1530 1533 1535 1537 1539 1541 1543 1544 1546 1547 1549 1550 1551 1553 1554 1555 1557 1558 1559 1560 1561 1562 1562 1563 1563
1489 1494 1497 1493 1492 1494 1500 1501 1494 1496 1498 1499 1500 1502 1504 1507 1509 1512 1514 1516 1518 1521 1523 1526 1528 1530 1532 1535 1537 1539 1540 1542 1543 1545 1546 1548 1549 1550 1552 1553 1554 1555 1556 1557 1558 1559 1559 1560 1560
1490 1495 1496 1493 1490 1492 1496 1498 1493 1494 1496 1497 1498 1500 1502 1505 1507 1509 1512 1514 1516 1518 1521 1523 1525 1528 1530 1532 1534 1536 1538 1539 1541 1542 1543 1545 1546 1547 1548 1549 1551 1552 1553 1554 1554 1555 1556 1556 1557
1488 1491 1492 1493 1489 1491 1495 1495 1492 1492 1494 1494 1496 1497 1499 1501 1504 1507 1509 1511 1513 1516 1518 1520 1522 1525 1527 1530 1532 1533 1535 1536 1537 1539 1540 1542 1543 1544 1545 1546 1547 1548 1549 1550 1550 1551 1552 1552 1553
1483 1487 1490 1490 1488 1491 1494 1494 1492 1490 1492 1492 1493 1494 1496 1498 1501 1503 1506 1508 1510 1512 1514 1516 1519 1521 1523 1525 1527 1529 1530 1532 1534 1535 1537 1538 1539 1540 1541 1542 1543 1544 1544 1545 1546 1547 1548 1548 1549
1483 1488 1490 1489 1487 1490 1494 1493 1490 1488 1489 1489 1490 1491 1492 1495 1497 1499 1502 1504 1506 1508 1510 1512 1515 1517 1519 1521 1523 1525 1527 1528 1530 1531 1533 1534 1535 1536 1537 1538 1538 1539 1540 1541 1542 1542 1543 1543 1545
1484 1487 1489 1490 1488 1490 1494 1495 1490 1485 1485 1485 1486 1487 1488 1490 1492 1495 1497 1500 1502 1504 1506 1508 1510 1512 1514 1517 1519 1521 1523 1524 1525 1526 1527 1529 1530 1531 1532 1533 1534 1534 1535 1535 1536 1537 1538 1538 1539
1484 1482 1485 1487 1493 1496 1495 1502 1490 1484 1482 1480 1480 1481 1483 1486 1488 1491 1493 1496 1498 1500 1503 1505 1507 1508 1510 1512 1514 1516 1517 1518 1519 1521 1523 1524 1525 1526 1527 1527 1528 1529 1529 1530 1530 1531 1532 1533 1533
1481 1480 1483 1487 1492 1496 1495 1500 1491 1481 1480 1474 1473 1475 1478 1482 1485 1487 1489 1492 1494 1497 1499 1501 1503 1505 1506 1508 1509 1511 1512 1514 1515 1517 1518 1519 1520 1520 1521 1522 1522 1523 1523 1524 1524 1525 1526 1526 1526
1478 1482 1486 1490 1494 1498 1494 1498 1490 1480 1472 1468 1468 1470 1474 1478 1481 1484 1487 1489 1491 1493 1495 1497 1499 1501 1502 1503 1505 1506 1507 1509 1510 1511 1512 1513 1514 1514 1515 1515 1516 1516 1517 1517 1518 1518 1519 1519 1520
1479 1486 1493 1495 1497 1496 1489 1491 1482 1469 1464 1462 1463 1465 1469 1474 1477 1481 1484 1486 1488 1490 1492 1494 1495 1497 1498 1499 1500 1502 1503 1504 1505 1506 1507 1507 1508 1508 1509 1509 1509 1510 1510 1511 1511 1511 1512 1512 1513
1478 1483 1491 1493 1495 1494 1488 1487 1474 1464 1459 1458 1459 1463 1467 1471 1475 1478 1481 1484 1486 1487 1489 1490 1492 1493 1494 1495 1496 1497 1498 1499 1500 1500 1501 1502 1502 1502 1503 1503 1503 1503 1504 1504 1504 1504 1505 1505 1506
1478 1482 1483 1490 1491 1493 1487 1478 1469 1462 1460 1459 1460 1463 1466 1470 1473 1477 1479 1482 1483 1485 1486 1487 1488 1490 1491 1492 1493 1493 1494 1494 1495 1495 1496 1496 1496 1497 1497 1497 1497 1497 1497 1498 1498 1498 1498 1499 1499
1475 1478 1485 1490 1491 1488 1481 1476 1472 1465 1463 1462 1462 1464 1466 1470 1473 1476 1478 1480 1482 1483 1484 1485 1486 1487 1488 1488 1489 1489 1490 1490 1490 1491 1491 1491 1491 1491 1491 1491 1491 1491 1491 1492 1492 1492 1492 1493 1493
1476 1478 1480 1484 1485 1488 1486 1477 1461 1461 1461 1462 1463 1464 1467 1470 1473 1475 1477 1479 1480 1481 1482 1483 1483 1484 1485 1485 1486 1486 1486 1486 1487 1487 1487 1487 1487 1487 1487 1486 1486 1486 1486 1486 1487 1487 1487 1487 1487
1471 1473 1477 1483 1484 1485 1486 1476 1456 1456 1458 1460 1463 1465 1467 1470 1472 1475 1476 1478 1479 1479 1480 1481 1481 1482 1482 1483 1483 1483 1483 1483 1483 1483 1483 1483 1483 1483 1483 1482 1482 1482 1482 1482 1482 1482 1482 1482 1483